Location: Bucaritos
(10.0779°N, 67.0369°W)
Time: 06:03:39
(UTC+00:00)

Ariane 3 Deb - Pass Details

Date: 27 June 2022
Orbit: 327 x 17851 km, 6.9° (Epoch: 18 August)

Event Time Altitude Azimuth Distance (km) Brightness Sun altitude
Rises 22:15:30 0° 271° (W) 15,724 11.2 7.6°
Reaches altitude 10° 22:38:02 10° 270° (W) 10,256 10.2 2.5°
Maximum altitude 23:03:43 69° 190° (S) 1,532 4.5 -3.3°
Drops below altitude 10° 23:08:34 10° 106° (ESE) 2,263 4.8 -4.4°
Enters shadow 23:09:16 - 104° (ESE) 2,542 5.0 -4.6°
